Theta_e
364 364 364 365 364 363 360 357 346 341 341 340 339 338 337 337 336 336 336 337 341 343 344 343 343 342 342 343 342 342 343 344 345 344 345 346 348 350 350 349 342 334 337
363 361 359 359 359 358 354 344 341 339 339 338 338 339 339 338 338 340 341 341 340 340 340 341 341 341 340 340 339 342 344 345 345 344 343 344 346 347 342 340 347 349 350
343 356 359 356 353 347 342 340 338 339 340 341 341 340 340 340 340 339 339 339 338 338 338 339 339 339 339 339 340 341 343 343 343 345 345 345 346 347 349 349 350 350 351
352 349 342 341 341 341 342 341 341 341 343 343 343 342 341 340 339 339 338 338 339 338 338 338 337 337 337 338 339 340 342 343 344 344 344 345 345 345 346 347 349 350 351
343 342 341 341 342 342 342 343 344 344 344 345 343 341 339 338 337 336 334 336 334 334 335 336 336 335 335 336 335 336 337 338 340 342 343 343 343 344 345 345 348 350 350
341 342 342 342 342 341 341 341 341 343 343 340 339 338 337 337 335 334 334 334 334 334 335 334 334 335 335 334 333 335 336 337 337 338 339 341 342 343 344 345 346 348 352
338 336 335 335 335 336 337 337 337 339 339 338 336 336 336 336 335 334 333 333 332 333 333 333 334 334 333 333 333 332 332 334 334 335 337 338 340 342 343 344 345 345 348
333 335 335 336 336 336 337 337 337 337 335 336 336 336 335 334 333 332 331 331 331 332 332 332 332 334 333 331 330 330 333 333 332 331 334 336 338 339 340 342 344 345 345
335 334 334 334 335 334 335 336 336 336 335 335 335 334 334 333 331 330 329 330 331 331 332 331 331 331 329 329 330 328 329 329 326 328 331 331 333 335 337 340 341 342 345
333 333 333 333 334 334 333 334 335 334 334 333 332 332 331 329 328 328 328 329 330 331 331 329 328 329 326 326 326 327 329 329 329 330 329 329 329 330 334 338 340 342 344
331 330 331 331 332 332 332 333 332 333 332 332 331 328 328 328 327 326 325 327 328 329 329 329 328 325 326 325 327 326 324 325 325 326 327 328 328 330 334 338 340 341 343
327 328 328 329 329 329 330 330 332 331 331 331 329 328 327 326 323 325 326 327 326 326 328 328 328 328 326 326 324 323 327 328 326 325 326 326 326 329 334 338 341 343 344
325 326 326 327 329 331 328 329 331 329 330 329 328 328 327 324 323 323 324 326 325 323 325 325 325 327 326 324 324 326 325 325 326 327 327 325 325 329 334 338 339 343 343
322 323 324 326 324 324 327 328 328 328 328 328 327 326 326 323 323 322 323 324 324 323 323 323 323 323 325 327 326 325 325 325 326 327 328 324 326 330 335 337 340 342 345
319 321 323 323 323 325 326 327 327 327 326 324 324 323 323 322 322 321 323 324 324 325 323 320 321 325 327 326 324 323 323 324 323 324 327 327 329 332 336 337 340 343 343
319 319 320 322 324 323 324 325 326 325 326 323 322 318 319 321 323 324 325 325 325 325 321 319 322 326 327 325 321 321 324 323 322 322 331 332 333 335 337 340 340 342 343
317 318 319 322 322 323 323 322 325 325 324 323 320 318 317 319 319 321 325 326 326 326 326 326 326 325 325 325 325 323 324 323 322 324 324 331 335 336 338 339 340 341 342
317 318 319 319 320 318 319 321 321 321 321 321 318 315 313 315 317 317 322 324 324 324 326 327 327 328 327 325 325 326 326 324 324 325 324 324 326 330 335 337 339 340 341
315 316 315 316 317 316 316 316 316 314 314 315 314 311 311 312 313 313 317 316 319 321 322 325 324 322 322 320 320 320 322 322 324 325 324 322 321 323 323 325 329 329 337
315 314 313 314 314 314 313 313 312 311 311 311 310 309 308 311 311 312 313 313 315 317 320 321 319 317 316 314 315 314 314 315 316 317 325 323 320 319 319 319 319 322 324
314 313 312 312 312 312 311 310 308 307 306 307 306 305 307 309 308 308 310 312 313 314 316 316 316 314 313 310 309 310 309 308 309 311 318 325 321 319 318 317 317 318 319
308 309 312 314 312 310 309 307 305 305 303 302 302 302 302 302 303 302 305 307 308 312 313 313 312 311 309 306 304 304 303 302 308 308 311 316 324 321 321 319 318 318 318
307 307 308 308 309 307 307 307 303 302 302 300 299 299 298 299 299 299 301 303 304 308 308 308 309 306 303 301 299 297 296 299 306 306 312 320 323 324 323 322 320 318 318
307 307 307 307 307 306 306 305 306 303 302 300 300 299 298 298 298 298 300 301 303 304 305 307 305 303 299 296 296 297 296 300 311 314 321 323 323 323 323 324 325 324 323
307 307 306 306 306 306 306 306 305 306 306 303 302 301 301 300 299 299 300 300 301 303 303 302 302 300 297 295 294 295 296 302 308 314 318 321 322 321 322 324 323 322 323
306 306 305 305 305 304 304 304 303 303 303 303 303 302 301 301 301 301 301 301 301 302 302 303 302 301 298 296 294 294 295 296 300 309 312 313 315 315 318 323 324 324 323
Wind_Speed
23 22 23 24 20 16 13 8 9 9 11 13 15 17 17 20 23 26 29 32 32 32 32 33 32 31 30 28 27 28 30 30 19 30 29 26 21 19 15 12 11 19 29
31 24 23 30 16 12 5 7 12 11 13 18 19 19 20 23 26 27 29 29 30 31 30 31 30 28 27 26 28 28 27 30 29 26 31 28 27 27 32 32 28 27 27
11 18 22 7 7 7 9 12 14 15 20 20 20 21 23 24 26 29 31 34 32 31 30 29 29 27 27 26 27 27 27 28 28 26 27 26 25 25 22 26 28 25 31
13 13 23 25 15 9 8 10 15 19 21 21 22 22 23 27 28 30 35 32 28 26 27 27 28 26 27 28 28 26 26 24 24 24 25 26 26 27 26 26 25 24 27
16 18 15 5 11 11 13 16 19 22 24 23 23 24 25 26 27 30 36 31 31 29 26 26 27 29 28 29 31 30 29 26 25 23 23 23 23 22 21 24 24 24 27
13 8 5 3 10 12 15 18 21 24 25 25 24 26 27 26 30 34 36 37 32 28 27 27 27 27 29 33 32 32 24 24 23 23 26 23 25 24 25 25 24 20 11
8 9 9 11 14 16 18 21 23 23 24 22 24 25 26 27 30 31 32 32 32 28 28 28 29 29 30 31 30 31 29 25 24 27 28 29 30 29 27 27 27 25 24
8 10 13 15 16 17 18 19 20 20 24 25 25 25 26 26 29 30 34 35 31 29 28 28 30 32 32 30 29 30 27 26 26 27 30 33 32 32 33 32 31 30 31
12 14 15 16 17 18 19 21 23 22 23 23 24 25 26 28 31 32 33 33 29 28 28 31 29 31 30 26 27 21 22 26 33 30 31 35 37 38 38 36 29 24 18
13 14 15 17 18 18 22 23 21 23 23 24 25 26 27 31 30 33 30 32 26 26 25 26 24 22 14 16 24 24 20 28 29 32 34 35 33 36 37 37 38 26 22
15 16 17 18 21 21 21 23 24 23 24 23 24 26 27 25 23 29 32 26 24 20 20 20 19 24 26 29 29 27 30 34 37 33 36 37 35 34 34 34 36 37 32
16 17 18 20 20 20 21 23 21 21 22 23 20 21 21 22 29 28 27 22 13 15 17 20 23 27 32 32 31 31 27 32 35 33 35 37 35 34 33 32 35 36 40
18 18 19 22 24 18 20 24 18 21 19 17 19 21 21 21 27 26 27 17 16 23 20 26 29 31 28 27 26 21 27 32 31 33 35 33 32 31 29 28 29 32 38
17 19 21 21 21 22 23 22 19 21 19 18 18 22 21 22 22 27 32 33 29 24 27 34 32 27 21 17 14 20 28 32 38 42 33 26 25 24 25 24 23 21 23
16 18 18 20 21 20 22 21 22 20 17 14 16 21 21 23 24 30 31 32 29 31 33 28 22 19 21 9 16 24 29 32 36 41 19 19 20 20 21 22 23 20 20
16 15 17 18 20 20 21 22 20 23 14 16 17 23 24 28 26 25 31 27 22 22 18 18 18 19 7 6 14 16 20 27 30 43 15 16 16 17 18 18 21 20 18
15 15 18 20 17 18 18 19 19 19 16 15 20 24 28 27 27 28 29 19 21 20 26 17 8 13 17 13 11 15 15 23 27 33 37 20 12 14 15 17 17 19 17
13 14 18 20 18 20 21 19 20 22 18 19 20 26 31 27 24 29 27 23 24 25 20 20 20 20 18 18 21 19 15 19 26 28 29 33 30 21 12 16 16 15 15
14 13 16 15 17 17 18 20 19 19 20 21 21 28 34 29 26 28 26 25 21 23 25 23 24 23 23 23 24 26 24 25 26 24 24 28 31 29 24 24 17 12 3
11 12 14 13 14 15 18 17 18 19 19 19 20 23 31 27 28 27 30 28 24 24 24 24 23 24 24 26 26 26 26 27 28 29 22 24 25 24 14 26 30 25 22
11 7 8 9 11 14 15 15 15 17 18 18 18 22 23 19 23 25 25 25 25 27 25 25 24 25 26 28 29 27 27 26 28 25 28 18 16 14 16 27 34 32 27
18 14 7 5 8 9 10 11 12 12 16 19 20 20 23 24 22 24 24 26 26 24 24 24 26 26 27 27 29 28 28 31 36 33 29 23 10 9 17 21 18 23 23
18 13 14 12 10 9 10 7 8 10 12 17 19 20 22 19 19 23 25 22 23 21 21 23 23 24 26 26 30 29 33 39 33 33 29 27 24 5 1 5 13 14 15
12 13 14 14 11 9 8 10 3 2 6 13 18 19 21 23 18 20 22 25 22 21 23 19 21 21 24 28 32 33 35 35 34 36 32 26 21 27 24 8 4 6 8
13 13 13 14 14 15 17 15 13 10 4 5 11 16 17 17 20 21 25 25 24 19 15 19 19 16 21 28 34 33 32 28 27 27 28 28 27 29 30 23 24 25 7
11 12 13 13 13 15 18 18 16 16 17 16 14 16 16 15 19 18 23 21 22 22 21 19 22 17 22 28 36 33 32 28 24 22 24 27 27 27 30 24 22 21 23
Wind_Direction
197 200 202 194 201 211 230 238 257 266 269 276 279 287 289 288 290 289 288 288 285 282 279 273 274 277 280 279 278 276 277 278 281 289 299 295 300 295 295 273 238 221 251
190 190 208 209 185 173 214 262 271 268 272 274 281 284 286 288 289 289 287 284 283 282 284 285 283 284 279 283 284 279 273 271 276 279 283 286 282 286 289 289 275 265 257
143 198 178 230 125 167 198 256 273 281 277 277 281 289 292 293 294 292 290 285 285 282 283 282 283 284 283 280 276 273 275 273 271 278 282 281 280 282 279 276 273 265 259
74 47 61 37 360 306 280 291 287 279 277 280 285 289 294 297 296 294 289 290 291 290 289 285 280 274 276 276 275 273 275 277 277 273 273 274 271 270 267 263 273 264 264
37 34 48 87 263 294 290 281 280 281 283 286 294 295 295 295 296 297 300 306 301 297 288 285 283 281 277 277 280 278 274 272 273 273 271 271 272 271 259 259 258 264 261
28 21 335 292 283 297 303 305 304 299 298 299 296 294 296 293 295 295 299 303 304 296 289 288 287 284 281 282 282 284 280 289 283 278 272 269 268 265 267 267 262 264 266
9 348 338 329 326 327 325 321 315 310 309 307 302 297 298 298 297 298 302 302 301 295 286 286 283 281 281 280 281 285 290 289 292 296 281 272 271 267 265 266 258 252 251
340 350 347 339 331 327 322 315 313 313 310 306 303 301 299 298 299 301 304 303 298 291 286 283 281 279 278 283 286 286 281 280 289 290 281 278 277 273 266 262 259 260 261
5 350 341 335 327 319 315 313 309 308 309 305 303 302 302 300 302 305 311 305 296 290 285 286 284 282 287 287 283 284 286 285 286 288 283 282 281 279 274 264 260 251 254
348 338 334 327 320 320 311 311 318 317 313 311 308 303 300 299 302 304 308 307 297 293 289 294 300 296 298 290 306 306 293 284 288 286 290 284 278 280 276 267 250 245 245
346 334 327 326 321 316 322 321 319 316 312 306 305 307 305 310 319 313 314 309 300 302 301 302 302 303 296 299 301 301 291 294 293 286 287 280 275 269 263 253 250 235 239
335 327 328 321 311 307 306 307 305 312 308 304 310 321 324 327 333 331 322 317 309 313 298 295 294 293 297 301 303 304 303 305 294 283 282 272 264 254 249 244 241 240 235
330 326 321 308 304 313 319 314 319 324 311 329 326 322 319 321 331 341 340 324 314 315 307 305 302 299 300 303 302 303 315 307 294 282 285 260 253 248 243 240 247 242 242
336 328 315 313 339 330 317 323 336 321 333 328 331 328 319 313 314 326 328 325 324 315 310 308 309 307 306 310 327 324 329 316 304 289 283 253 248 241 237 239 238 234 231
328 324 329 338 323 326 335 332 330 343 342 356 350 338 321 320 321 326 324 321 321 318 315 319 312 301 307 355 359 1 340 327 327 327 244 236 238 233 238 242 236 234 230
330 332 330 326 328 340 330 332 335 340 347 11 10 7 353 350 342 352 345 331 327 327 338 318 308 313 350 30 15 345 335 342 340 353 312 233 235 234 240 235 229 226 230
331 331 326 320 342 331 340 340 337 348 5 11 5 359 2 356 359 8 0 9 25 10 339 335 331 34 35 24 347 326 327 350 357 4 5 2 258 261 258 245 236 225 224
343 342 344 338 344 349 339 345 351 359 358 352 6 358 0 4 9 11 14 25 15 18 345 13 24 31 32 27 358 348 346 357 6 4 6 19 25 5 272 250 239 226 222
354 357 349 341 348 351 349 357 359 359 358 347 7 6 11 13 16 21 27 14 2 358 347 16 30 20 17 8 6 1 4 6 356 2 13 21 24 26 16 35 41 42 225
0 358 355 352 359 359 355 3 0 3 0 1 9 5 360 7 14 14 20 9 5 4 7 7 21 19 15 10 9 9 6 5 2 1 355 23 25 38 23 49 41 38 35
317 1 3 3 7 6 1 5 7 7 1 2 4 5 13 15 15 10 8 2 5 5 6 10 22 19 15 12 8 10 6 358 359 354 357 2 32 23 36 55 59 50 41
324 347 341 351 18 12 8 11 10 9 12 14 3 4 10 21 10 9 5 6 7 8 13 18 20 21 15 13 7 5 5 357 360 0 349 351 345 55 62 69 71 70 67
320 353 342 348 23 357 14 359 6 17 21 23 23 13 18 8 11 10 12 11 0 3 16 21 21 19 15 10 11 7 1 0 359 0 349 3 353 324 253 128 108 114 112
352 354 344 348 353 348 355 346 268 330 37 31 29 24 25 24 13 5 11 18 13 6 11 17 18 15 13 8 8 6 2 1 5 5 11 9 5 21 20 26 228 170 150
359 359 354 354 355 355 349 3 7 359 346 31 14 10 17 13 9 10 7 8 1 1 4 15 13 12 12 8 5 3 359 358 3 4 15 10 8 9 11 16 22 27 17
360 8 0 353 7 2 1 17 7 8 360 9 25 9 356 1 6 9 1 4 4 6 6 12 13 5 4 3 1 0 3 8 8 7 14 10 7 6 9 2 15 30 22